Seattle Boeing, WA
on Monday, November 26, 2012

Monday
Previous Day Next Day
Daily Summary
 ActualAverage (KSEA)Record (KSEA)
Temperature
Mean Temperature °F 43°F  
Max Temperature 48°F 48°F 61°F (1949)
Min Temperature 36°F 38°F 25°F (1952)
Degree Days
Heating Degree Days 22 22  
Month to date heating degree days 497  
Since 1 July heating degree days 1094  
Cooling Degree Days 0 0  
Month to date cooling degree days 0  
Year to date cooling degree days 189  
Moisture
Dew Point 33°F   
Average Humidity 75    
Maximum Humidity 87    
Minimum Humidity 50    
Precipitation
Precipitation 0.00 in 0.22 in 1.34 in (2009)
Month to date precipitation 5.69  
Year to date precipitation 31.26  
Snow
Snow 0.00 in in 2.20 in (1964)
Month to date snowfall  
Since 1 July snowfall  
Snow Depth in   
Wind
Wind Speed 2 mph   
Max Wind Speed 7 mph   
Max Gust Speed mph   
Visibility 10 miles   
Events     

Key: T is trace of precipitation, MM is missing value
Source: NWS Daily Summary
Time(PST)TemperatureDew PointHumidity Pressure Visibility Wind DirectionWind SpeedGust SpeedPrecipitationEvents Conditions
12:53 AM 39.0°F 34.0°F 82% 30.23 in 10.0 miles Calm Calm - N/A   Scattered Clouds
1:53 AM 39.0°F 35.1°F 86% 30.22 in 10.0 miles Calm Calm - N/A   Clear
2:53 AM 37.0°F 33.1°F 86% 30.18 in 10.0 miles Calm Calm - N/A   Clear
3:19 AM 37.4°F 33.8°F 87% 30.18 in 10.0 miles Calm Calm - N/A   Partly Cloudy
3:53 AM 37.0°F 33.1°F 86% 30.17 in 10.0 miles NW 5.8 mph - N/A   Clear
4:53 AM 37.0°F 33.1°F 86% 30.17 in 10.0 miles NNW 5.8 mph - N/A   Partly Cloudy
5:53 AM 37.9°F 32.0°F 79% 30.17 in 10.0 miles Variable 3.5 mph - N/A   Partly Cloudy
6:53 AM 37.0°F 33.1°F 86% 30.16 in 10.0 miles Variable 3.5 mph - N/A   Partly Cloudy
7:53 AM 37.9°F 32.0°F 79% 30.15 in 10.0 miles Calm Calm - N/A   Scattered Clouds
8:53 AM 39.0°F 33.1°F 79% 30.13 in 10.0 miles North 3.5 mph - N/A   Clear
9:53 AM 41.0°F 32.0°F 70% 30.12 in 10.0 miles NNE 4.6 mph - N/A   Scattered Clouds
10:53 AM 45.0°F 30.9°F 58% 30.13 in 10.0 miles North 3.5 mph - N/A   Clear
11:53 AM 46.0°F 33.1°F 61% 30.10 in 10.0 miles Variable 4.6 mph - N/A   Clear
12:53 PM 48.0°F 33.1°F 56% 30.08 in 10.0 miles NW 5.8 mph - N/A   Clear
1:53 PM 48.0°F 32.0°F 54% 30.07 in 10.0 miles WNW 5.8 mph - N/A   Mostly Cloudy
2:53 PM 48.0°F 30.0°F 50% 30.06 in 10.0 miles NW 6.9 mph - N/A   Mostly Cloudy
3:53 PM 46.0°F 35.1°F 66% 30.06 in 10.0 miles NW 3.5 mph - N/A   Mostly Cloudy
4:53 PM 44.1°F 36.0°F 73% 30.06 in 10.0 miles Calm Calm - N/A   Scattered Clouds
5:53 PM 43.0°F 35.1°F 74% 30.06 in 10.0 miles Calm Calm - N/A   Partly Cloudy
6:53 PM 41.0°F 34.0°F 76% 30.06 in 10.0 miles Calm Calm - N/A   Partly Cloudy
7:53 PM 39.9°F 33.1°F 77% 30.06 in 10.0 miles Calm Calm - N/A   Clear
8:53 PM 39.0°F 33.1°F 79% 30.06 in 10.0 miles Calm Calm - N/A   Clear
9:53 PM 37.0°F 32.0°F 82% 30.07 in 10.0 miles Calm Calm - N/A   Clear
10:53 PM 37.0°F 32.0°F 82% 30.07 in 10.0 miles Calm Calm - N/A   Clear
11:53 PM 36.0°F 32.0°F 86% 30.08 in 10.0 miles Calm Calm - N/A   Clear
Moon Phase
Nov. 26 Nov. 28 Dec. 06 Dec. 13 Dec. 20
Sunrise:07:30 AM (PST) Moon Rise:03:21 PM (PST)11/26
Sunset:04:22 PM (PST) Moon Set:05:41 AM (PST)11/26

Copyright © 2014 The Weather Underground, Inc.